Time,TemperatureF,DewpointF,PressureIn,WindDirection,WindDirectionDegrees,WindSpeedMPH,WindSpeedGustMPH,Humidity,HourlyPrecipIn,Conditions,Clouds,dailyrainin,SolarRadiationWatts/m^2,SoftwareType,DateUTC
2013-01-15 00:00:00,42.9,37.5,30.24,NE,56,3.6,11.0,81,0.02,-RA,,0.12,0.0,WeatherDisplay:10.37,2013-01-15 05:00:00,
2013-01-15 00:03:00,42.8,37.4,30.24,North,355,6.1,12.7,81,0.02,-RA,,0.00,0.0,WeatherDisplay:10.37,2013-01-15 05:03:00,
2013-01-15 00:06:00,42.5,37.4,30.24,NE,43,0.8,5.0,82,0.03,-RA,,0.01,0.0,WeatherDisplay:10.37,2013-01-15 05:06:00,
2013-01-15 00:11:00,42.3,37.2,30.24,NW,319,4.8,8.1,82,0.03,-RA,,0.01,0.0,WeatherDisplay:10.37,2013-01-15 05:11:00,
2013-01-15 00:16:00,42.1,37.3,30.24,NNE,15,4.1,11.0,83,0.03,-RA,,0.01,0.0,WeatherDisplay:10.37,2013-01-15 05:16:00,
2013-01-15 00:21:00,41.9,37.4,30.24,NNE,31,2.5,4.6,84,0.03,-RA,,0.01,0.0,WeatherDisplay:10.37,2013-01-15 05:21:00,
2013-01-15 00:26:00,41.6,37.1,30.24,NW,306,0.1,3.5,84,0.03,-RA,,0.01,0.0,WeatherDisplay:10.37,2013-01-15 05:26:00,
2013-01-15 00:31:00,41.5,37.0,30.25,NNW,342,2.7,5.8,84,0.04,-RA,,0.02,0.0,WeatherDisplay:10.37,2013-01-15 05:31:00,
2013-01-15 00:36:00,41.3,37.1,30.25,North,355,0.9,3.5,85,0.03,-RA,,0.02,0.0,WeatherDisplay:10.37,2013-01-15 05:36:00,
2013-01-15 00:41:00,41.2,37.3,30.25,North,355,2.2,5.8,86,0.04,-RA,,0.03,0.0,WeatherDisplay:10.37,2013-01-15 05:41:00,
2013-01-15 00:46:00,41.2,37.3,30.26,North,351,0.5,2.3,86,0.04,-RA,,0.03,5.0,WeatherDisplay:10.37,2013-01-15 05:46:00,
2013-01-15 00:51:00,41.1,37.2,30.26,NNW,340,0.1,1.0,86,0.05,-RA,,0.04,5.0,WeatherDisplay:10.37,2013-01-15 05:51:00,
2013-01-15 00:56:00,40.9,37.3,30.26,NNE,24,1.0,3.5,87,0.05,-RA,,0.05,5.0,WeatherDisplay:10.37,2013-01-15 05:56:00,
2013-01-15 01:01:00,40.8,37.2,30.23,ENE,69,0.4,3.5,87,0.05,RA,,0.05,5.0,WeatherDisplay:10.37,2013-01-15 06:01:00,
2013-01-15 01:06:00,40.8,37.5,30.23,NNE,24,2.7,8.1,88,0.04,OVC,,0.05,7.0,WeatherDisplay:10.37,2013-01-15 06:06:00,
2013-01-15 01:11:00,40.6,37.3,30.23,NW,304,1.0,3.5,88,0.05,RA,,0.07,7.0,WeatherDisplay:10.37,2013-01-15 06:11:00,
2013-01-15 01:16:00,40.6,37.3,30.24,NE,51,0.8,3.5,88,0.05,RA,,0.07,7.0,WeatherDisplay:10.37,2013-01-15 06:16:00,
2013-01-15 01:21:00,40.5,37.2,30.24,NE,46,0.0,0.0,88,0.05,OVC,,0.07,7.0,WeatherDisplay:10.37,2013-01-15 06:21:00,
2013-01-15 01:26:00,40.5,37.2,30.24,NNW,333,0.2,1.1,88,0.05,OVC,,0.07,7.0,WeatherDisplay:10.37,2013-01-15 06:26:00,
2013-01-15 01:31:00,40.5,37.5,30.24,NNE,19,0.0,0.0,89,0.04,OVC,,0.07,7.0,WeatherDisplay:10.37,2013-01-15 06:31:00,
2013-01-15 01:36:00,40.5,37.5,30.24,NNE,19,0.0,0.0,89,0.05,RA,,0.08,7.0,WeatherDisplay:10.37,2013-01-15 06:36:00,
2013-01-15 01:41:00,40.3,37.3,30.24,WNW,303,0.5,3.5,89,0.04,RA,,0.08,7.0,WeatherDisplay:10.37,2013-01-15 06:41:00,
2013-01-15 01:46:00,40.3,37.3,30.26,NNW,339,0.0,0.0,89,0.04,OVC,,0.08,7.0,WeatherDisplay:10.37,2013-01-15 06:46:00,
2013-01-15 01:51:00,40.3,37.3,30.26,North,355,0.9,3.5,89,0.03,OVC,,0.08,7.0,WeatherDisplay:10.37,2013-01-15 06:51:00,
2013-01-15 01:56:00,40.3,37.6,30.26,NNE,14,0.1,1.0,90,0.02,OVC,,0.08,7.0,WeatherDisplay:10.37,2013-01-15 06:56:00,
2013-01-15 02:01:00,40.3,37.6,30.25,NNE,16,0.7,1.1,90,0.03,-RA,,0.09,7.0,WeatherDisplay:10.37,2013-01-15 07:01:00,
2013-01-15 02:06:00,40.3,37.6,30.25,NNE,13,0.2,2.0,90,0.04,-RA,,0.11,7.0,WeatherDisplay:10.37,2013-01-15 07:06:00,
2013-01-15 02:11:00,40.3,37.9,30.25,SE,125,0.0,0.0,91,0.05,-RA,,0.12,7.0,WeatherDisplay:10.37,2013-01-15 07:11:00,
2013-01-15 02:16:00,40.5,38.1,30.23,East,94,0.7,2.3,91,0.07,-RA,,0.13,7.0,WeatherDisplay:10.37,2013-01-15 07:16:00,
2013-01-15 02:21:00,40.5,38.1,30.23,ESE,102,0.0,2.3,91,0.08,-RA,,0.14,7.0,WeatherDisplay:10.37,2013-01-15 07:21:00,
2013-01-15 02:26:00,40.5,38.1,30.23,East,80,0.0,0.0,91,0.10,-RA,,0.16,7.0,WeatherDisplay:10.37,2013-01-15 07:26:00,
2013-01-15 02:31:00,40.5,38.1,30.23,East,81,0.0,2.3,91,0.10,-RA,,0.16,7.0,WeatherDisplay:10.37,2013-01-15 07:31:00,
2013-01-15 02:36:00,40.6,38.5,30.23,ENE,69,0.9,3.5,92,0.10,-RA,,0.18,7.0,WeatherDisplay:10.37,2013-01-15 07:36:00,
2013-01-15 02:41:00,40.6,38.5,30.23,NE,55,0.3,2.0,92,0.11,-RA,,0.19,7.0,WeatherDisplay:10.37,2013-01-15 07:41:00,
2013-01-15 02:46:00,40.6,38.5,30.22,ENE,58,1.2,3.5,92,0.11,-RA,,0.19,7.0,WeatherDisplay:10.37,2013-01-15 07:46:00,
2013-01-15 02:51:00,40.6,38.5,30.22,ESE,118,0.4,1.0,92,0.11,-RA,,0.19,7.0,WeatherDisplay:10.37,2013-01-15 07:51:00,
2013-01-15 02:56:00,40.6,38.5,30.22,ESE,103,0.0,1.1,92,0.11,-RA,,0.19,7.0,WeatherDisplay:10.37,2013-01-15 07:56:00,
2013-01-15 03:01:00,40.8,38.7,30.21,East,82,0.0,2.3,92,0.10,OVC,,0.19,7.0,WeatherDisplay:10.37,2013-01-15 08:01:00,
2013-01-15 03:06:00,40.6,38.5,30.21,East,92,0.5,2.3,92,0.09,OVC,,0.19,7.0,WeatherDisplay:10.37,2013-01-15 08:06:00,
2013-01-15 03:11:00,40.8,38.7,30.21,East,101,0.2,2.3,92,0.09,RA,,0.21,7.0,WeatherDisplay:10.37,2013-01-15 08:11:00,
2013-01-15 03:16:00,40.8,38.9,30.20,ESE,105,0.0,0.0,93,0.08,RA,,0.21,7.0,WeatherDisplay:10.37,2013-01-15 08:16:00,
2013-01-15 03:21:00,40.8,38.9,30.20,NE,55,1.1,3.0,93,0.07,OVC,,0.21,7.0,WeatherDisplay:10.37,2013-01-15 08:21:00,
2013-01-15 03:26:00,40.9,39.0,30.20,NE,51,0.1,1.1,93,0.05,RA,,0.22,7.0,WeatherDisplay:10.37,2013-01-15 08:26:00,
2013-01-15 03:31:00,40.9,39.0,30.19,East,80,0.0,2.3,93,0.05,RA,,0.22,7.0,WeatherDisplay:10.37,2013-01-15 08:31:00,
2013-01-15 03:36:00,40.9,39.0,30.19,East,80,0.5,1.1,93,0.04,OVC,,0.22,7.0,WeatherDisplay:10.37,2013-01-15 08:36:00,
2013-01-15 03:41:00,41.1,39.2,30.19,ESE,103,0.4,2.3,93,0.03,OVC,,0.22,7.0,WeatherDisplay:10.37,2013-01-15 08:41:00,
2013-01-15 03:46:00,41.1,39.2,30.18,East,98,0.3,2.3,93,0.03,OVC,,0.22,7.0,WeatherDisplay:10.37,2013-01-15 08:46:00,
2013-01-15 03:51:00,41.1,39.5,30.18,ESE,115,0.7,3.5,94,0.03,OVC,,0.22,7.0,WeatherDisplay:10.37,2013-01-15 08:51:00,
2013-01-15 03:56:00,41.1,39.5,30.18,ESE,115,0.0,0.0,94,0.04,RA,,0.23,7.0,WeatherDisplay:10.37,2013-01-15 08:56:00,
2013-01-15 04:01:00,40.9,39.3,30.19,NNW,331,0.0,0.0,94,0.04,-RA,,0.23,7.0,WeatherDisplay:10.37,2013-01-15 09:01:00,
2013-01-15 04:06:00,40.9,39.3,30.19,NNW,331,0.1,0.0,94,0.04,-RA,,0.23,7.0,WeatherDisplay:10.37,2013-01-15 09:06:00,
2013-01-15 04:11:00,40.9,39.3,30.19,NNW,331,0.0,0.0,94,0.02,-RA,,0.23,7.0,WeatherDisplay:10.37,2013-01-15 09:11:00,
2013-01-15 04:16:00,40.9,39.3,30.20,NNW,331,0.0,0.0,94,0.02,-RA,,0.23,7.0,WeatherDisplay:10.37,2013-01-15 09:16:00,
2013-01-15 04:21:00,41.1,39.5,30.20,NNW,331,0.0,0.0,94,0.03,-RA,,0.24,7.0,WeatherDisplay:10.37,2013-01-15 09:21:00,
2013-01-15 04:26:00,41.1,39.5,30.20,NNW,331,0.0,0.0,94,0.02,-RA,,0.24,7.0,WeatherDisplay:10.37,2013-01-15 09:26:00,
2013-01-15 04:31:00,41.1,39.5,30.20,NNW,331,0.0,1.1,94,0.02,-RA,,0.24,7.0,WeatherDisplay:10.37,2013-01-15 09:31:00,
2013-01-15 04:36:00,41.1,39.5,30.20,NNW,331,0.0,0.0,94,0.03,-RA,,0.25,7.0,WeatherDisplay:10.37,2013-01-15 09:36:00,
2013-01-15 04:41:00,41.1,39.5,30.20,NNW,331,0.0,0.0,94,0.03,-RA,,0.25,7.0,WeatherDisplay:10.37,2013-01-15 09:41:00,
2013-01-15 04:46:00,41.1,39.5,30.21,NNW,331,0.4,1.1,94,0.03,-RA,,0.25,7.0,WeatherDisplay:10.37,2013-01-15 09:46:00,
2013-01-15 04:51:00,41.1,39.5,30.21,NNW,331,0.5,1.0,94,0.04,-RA,,0.26,7.0,WeatherDisplay:10.37,2013-01-15 09:51:00,
2013-01-15 04:56:00,41.1,39.5,30.21,NNW,331,0.0,0.0,94,0.03,-RA,,0.26,7.0,WeatherDisplay:10.37,2013-01-15 09:56:00,
2013-01-15 05:01:00,41.1,39.5,30.21,North,11,0.0,2.3,94,0.04,-RA,,0.27,7.0,WeatherDisplay:10.37,2013-01-15 10:01:00,
2013-01-15 05:06:00,41.1,39.5,30.21,West,276,0.0,1.0,94,0.04,-RA,,0.27,7.0,WeatherDisplay:10.37,2013-01-15 10:06:00,
2013-01-15 05:11:00,41.1,39.5,30.21,WNW,288,0.1,1.1,94,0.04,-RA,,0.27,7.0,WeatherDisplay:10.37,2013-01-15 10:11:00,
2013-01-15 05:16:00,41.1,39.5,30.20,WNW,302,0.4,2.0,94,0.05,-RA,,0.29,7.0,WeatherDisplay:10.37,2013-01-15 10:16:00,
2013-01-15 05:21:00,41.2,39.6,30.20,NW,305,1.1,3.5,94,0.04,-RA,,0.29,7.0,WeatherDisplay:10.37,2013-01-15 10:21:00,
2013-01-15 05:26:00,41.2,39.6,30.20,NNE,21,0.1,2.3,94,0.04,-RA,,0.29,7.0,WeatherDisplay:10.37,2013-01-15 10:26:00,
2013-01-15 05:31:00,41.2,39.6,30.20,NE,37,1.8,3.0,94,0.04,-RA,,0.30,7.0,WeatherDisplay:10.37,2013-01-15 10:31:00,
2013-01-15 05:36:00,41.1,39.5,30.20,NE,38,1.7,3.5,94,0.04,-RA,,0.30,7.0,WeatherDisplay:10.37,2013-01-15 10:36:00,
2013-01-15 05:41:00,41.1,39.5,30.20,North,355,0.0,1.1,94,0.04,-RA,,0.30,7.0,WeatherDisplay:10.37,2013-01-15 10:41:00,
2013-01-15 05:48:00,41.1,39.5,30.19,North,10,0.0,5.8,94,0.03,-RA,,0.30,7.0,WeatherDisplay:10.37,2013-01-15 10:48:00,
2013-01-15 05:53:00,41.1,39.5,30.19,NNE,19,0.1,1.1,94,0.04,-RA,,0.31,7.0,WeatherDisplay:10.37,2013-01-15 10:53:00,
2013-01-15 05:58:00,41.1,39.5,30.19,NNE,24,0.7,2.3,94,0.04,-RA,,0.31,7.0,WeatherDisplay:10.37,2013-01-15 10:58:00,
2013-01-15 06:03:00,41.1,39.5,30.19,NNW,339,0.4,3.5,94,0.03,-RA,,0.31,7.0,WeatherDisplay:10.37,2013-01-15 11:03:00,
2013-01-15 06:08:00,41.1,39.5,30.19,NNW,339,0.0,0.0,94,0.03,-RA,,0.31,7.0,WeatherDisplay:10.37,2013-01-15 11:08:00,
2013-01-15 06:13:00,40.9,39.3,30.19,NNW,337,0.1,2.3,94,0.03,-RA,,0.31,7.0,WeatherDisplay:10.37,2013-01-15 11:13:00,
2013-01-15 06:18:00,40.9,39.3,30.21,NNW,339,0.0,0.0,94,0.02,-RA,,0.31,7.0,WeatherDisplay:10.37,2013-01-15 11:18:00,
2013-01-15 06:23:00,40.9,39.6,30.21,NNE,14,0.0,0.0,95,0.02,-RA,,0.31,7.0,WeatherDisplay:10.37,2013-01-15 11:23:00,
2013-01-15 06:28:00,40.9,39.6,30.21,NNE,14,0.0,0.0,95,0.02,-RA,,0.31,7.0,WeatherDisplay:10.37,2013-01-15 11:28:00,
2013-01-15 06:33:00,40.9,39.6,30.21,NE,36,2.0,4.6,95,0.02,-RA,,0.32,7.0,WeatherDisplay:10.37,2013-01-15 11:33:00,
2013-01-15 06:38:00,40.9,39.6,30.22,NNW,328,0.5,1.1,95,0.02,-RA,,0.32,7.0,WeatherDisplay:10.37,2013-01-15 11:38:00,
2013-01-15 06:43:00,40.9,39.6,30.22,NE,34,1.2,3.5,95,0.02,-RA,,0.32,7.0,WeatherDisplay:10.37,2013-01-15 11:43:00,
2013-01-15 06:48:00,40.9,39.6,30.22,NE,46,1.6,3.5,95,0.02,-RA,,0.32,7.0,WeatherDisplay:10.37,2013-01-15 11:48:00,
2013-01-15 06:53:00,40.9,39.6,30.22,NW,305,1.6,3.5,95,0.01,-RA,,0.32,7.0,WeatherDisplay:10.37,2013-01-15 11:53:00,
2013-01-15 06:58:00,40.9,39.6,30.22,ENE,77,2.2,4.0,95,0.01,-RA,,0.32,7.0,WeatherDisplay:10.37,2013-01-15 11:58:00,
2013-01-15 07:03:00,40.9,39.6,30.22,NE,38,1.7,3.5,95,0.01,-RA,,0.32,7.0,WeatherDisplay:10.37,2013-01-15 12:03:00,
2013-01-15 07:08:00,40.8,39.5,30.22,NE,39,0.0,0.0,95,0.01,-RA,,0.32,7.0,WeatherDisplay:10.37,2013-01-15 12:08:00,
2013-01-15 07:13:00,40.8,39.5,30.22,NE,40,0.2,1.1,95,0.02,-RA,,0.33,7.0,WeatherDisplay:10.37,2013-01-15 12:13:00,
2013-01-15 07:18:00,40.8,39.5,30.23,North,5,0.5,3.5,95,0.02,-RA,,0.33,7.0,WeatherDisplay:10.37,2013-01-15 12:18:00,
2013-01-15 07:23:00,40.8,39.5,30.23,NNE,15,1.2,4.6,95,0.02,-RA,,0.33,7.0,WeatherDisplay:10.37,2013-01-15 12:23:00,
2013-01-15 07:28:00,40.8,39.5,30.23,NE,40,1.3,7.0,95,0.02,-RA,,0.33,7.0,WeatherDisplay:10.37,2013-01-15 12:28:00,
2013-01-15 07:33:00,40.8,39.5,30.25,NE,39,1.3,3.5,95,0.01,-RA,,0.33,7.0,WeatherDisplay:10.37,2013-01-15 12:33:00,
2013-01-15 07:38:00,40.8,39.5,30.25,ENE,74,3.5,3.5,95,0.01,-RA,,0.33,9.0,WeatherDisplay:10.37,2013-01-15 12:38:00,
2013-01-15 07:43:00,40.8,39.5,30.25,ENE,65,2.1,3.5,95,0.01,-RA,,0.33,9.0,WeatherDisplay:10.37,2013-01-15 12:43:00,
2013-01-15 07:48:00,40.6,39.3,30.25,NNW,329,1.0,2.3,95,0.01,-RA,,0.33,9.0,WeatherDisplay:10.37,2013-01-15 12:48:00,
2013-01-15 07:53:00,40.6,39.3,30.23,NNE,31,0.7,2.3,95,0.01,-RA,,0.33,12.0,WeatherDisplay:10.37,2013-01-15 12:53:00,
2013-01-15 07:58:00,40.6,39.3,30.23,NNW,347,1.6,5.8,95,0.01,-RA,,0.33,14.0,WeatherDisplay:10.37,2013-01-15 12:58:00,
2013-01-15 08:03:00,40.6,39.3,30.26,NNE,26,1.4,3.5,95,0.01,-RA,,0.33,12.0,WeatherDisplay:10.37,2013-01-15 13:03:00,
2013-01-15 08:08:00,40.6,39.3,30.26,NNE,16,1.5,3.5,95,0.01,-RA,,0.33,12.0,WeatherDisplay:10.37,2013-01-15 13:08:00,
2013-01-15 08:13:00,40.6,39.3,30.26,NNE,24,0.9,3.5,95,0.00,-RA,,0.33,14.0,WeatherDisplay:10.37,2013-01-15 13:13:00,
2013-01-15 08:18:00,40.6,39.3,30.25,NNE,13,0.0,3.5,95,0.00,-RA,,0.33,14.0,WeatherDisplay:10.37,2013-01-15 13:18:00,
2013-01-15 08:23:00,40.6,39.3,30.25,NNE,17,0.0,3.5,95,0.00,-RA,,0.33,18.0,WeatherDisplay:10.37,2013-01-15 13:23:00,
2013-01-15 08:28:00,40.5,39.2,30.25,NE,52,2.2,4.6,95,0.00,-RA,,0.33,19.0,WeatherDisplay:10.37,2013-01-15 13:28:00,
2013-01-15 08:33:00,40.5,39.2,30.27,North,350,0.0,2.3,95,0.00,-RA,,0.33,18.0,WeatherDisplay:10.37,2013-01-15 13:33:00,
2013-01-15 08:38:00,40.5,39.2,30.27,NNE,16,1.7,6.0,95,0.00,-RA,,0.33,19.0,WeatherDisplay:10.37,2013-01-15 13:38:00,
2013-01-15 08:43:00,40.5,39.2,30.27,NNE,21,1.6,3.5,95,0.00,-RA,,0.33,26.0,WeatherDisplay:10.37,2013-01-15 13:43:00,
2013-01-15 08:48:00,40.6,39.3,30.27,ENE,57,0.5,2.3,95,0.00,-RA,,0.33,23.0,WeatherDisplay:10.37,2013-01-15 13:48:00,
2013-01-15 08:53:00,40.6,39.3,30.27,NE,34,0.0,1.1,95,0.00,-RA,,0.33,32.0,WeatherDisplay:10.37,2013-01-15 13:53:00,
2013-01-15 08:58:00,40.6,39.3,30.27,NNE,19,0.0,0.0,95,0.00,-RA,,0.33,33.0,WeatherDisplay:10.37,2013-01-15 13:58:00,
2013-01-15 09:03:00,40.6,39.5,30.28,NNE,22,0.0,0.0,96,0.00,-RA,,0.33,28.0,WeatherDisplay:10.37,2013-01-15 14:03:00,
2013-01-15 09:08:00,40.6,39.5,30.28,NNE,23,0.4,1.1,96,0.00,-RA,,0.33,32.0,WeatherDisplay:10.37,2013-01-15 14:08:00,
2013-01-15 09:13:00,40.6,39.5,30.28,NE,49,0.3,2.3,96,0.00,-RA,,0.33,32.0,WeatherDisplay:10.37,2013-01-15 14:13:00,
2013-01-15 09:18:00,40.8,39.7,30.28,NNE,30,1.3,4.0,96,0.00,-RA,,0.33,25.0,WeatherDisplay:10.37,2013-01-15 14:18:00,
2013-01-15 09:23:00,40.8,39.7,30.28,NNW,341,1.5,4.6,96,0.00,-RA,,0.33,23.0,WeatherDisplay:10.37,2013-01-15 14:23:00,
2013-01-15 09:28:00,40.8,39.7,30.28,North,360,1.7,4.6,96,0.00,-RA,,0.33,23.0,WeatherDisplay:10.37,2013-01-15 14:28:00,
2013-01-15 09:33:00,40.8,39.7,30.29,NE,36,2.1,11.5,96,0.00,-RA,,0.33,26.0,WeatherDisplay:10.37,2013-01-15 14:33:00,
2013-01-15 09:38:00,40.8,39.7,30.29,NE,53,1.3,3.5,96,0.00,-RA,,0.33,35.0,WeatherDisplay:10.37,2013-01-15 14:38:00,
2013-01-15 09:43:00,40.9,39.8,30.29,ENE,63,3.0,6.0,96,0.00,-RA,,0.33,49.0,WeatherDisplay:10.37,2013-01-15 14:43:00,
2013-01-15 09:48:00,40.9,39.8,30.27,ENE,61,2.6,5.8,96,0.01,-RA,,0.34,56.0,WeatherDisplay:10.37,2013-01-15 14:48:00,
2013-01-15 09:53:00,40.9,39.8,30.27,NE,36,0.1,2.0,96,0.01,-RA,,0.34,58.0,WeatherDisplay:10.37,2013-01-15 14:53:00,
2013-01-15 09:58:00,40.9,39.8,30.27,NNE,32,2.5,3.5,96,0.01,-RA,,0.34,58.0,WeatherDisplay:10.37,2013-01-15 14:58:00,
2013-01-15 10:03:00,41.1,40.0,30.28,North,11,2.6,4.6,96,0.01,-RA,,0.34,49.0,WeatherDisplay:10.37,2013-01-15 15:03:00,
2013-01-15 10:08:00,41.1,40.0,30.28,NNW,336,0.9,5.8,96,0.01,-RA,,0.34,40.0,WeatherDisplay:10.37,2013-01-15 15:08:00,
2013-01-15 10:13:00,41.1,40.0,30.28,ENE,59,3.7,6.9,96,0.01,-RA,,0.34,49.0,WeatherDisplay:10.37,2013-01-15 15:13:00,
2013-01-15 10:18:00,41.1,40.0,30.28,NE,35,0.0,1.1,96,0.01,-RA,,0.34,47.0,WeatherDisplay:10.37,2013-01-15 15:18:00,
2013-01-15 10:23:00,41.1,40.0,30.28,North,355,2.6,7.0,96,0.02,-RA,,0.35,58.0,WeatherDisplay:10.37,2013-01-15 15:23:00,
2013-01-15 10:28:00,41.1,40.0,30.28,ENE,68,0.0,1.1,96,0.02,-RA,,0.35,53.0,WeatherDisplay:10.37,2013-01-15 15:28:00,
2013-01-15 10:33:00,41.1,40.0,30.29,NE,43,0.0,0.0,96,0.02,-RA,,0.35,39.0,WeatherDisplay:10.37,2013-01-15 15:33:00,
2013-01-15 10:38:00,41.1,40.0,30.29,North,360,2.6,3.5,96,0.03,-RA,,0.36,37.0,WeatherDisplay:10.37,2013-01-15 15:38:00,
2013-01-15 10:43:00,41.2,40.1,30.29,NNE,26,2.9,6.9,96,0.03,-RA,,0.36,56.0,WeatherDisplay:10.37,2013-01-15 15:43:00,
2013-01-15 10:48:00,41.1,40.0,30.29,NE,47,1.9,3.5,96,0.03,-RA,,0.37,69.0,WeatherDisplay:10.37,2013-01-15 15:48:00,
2013-01-15 10:53:00,41.1,40.0,30.29,North,9,0.9,3.5,96,0.03,-RA,,0.37,84.0,WeatherDisplay:10.37,2013-01-15 15:53:00,
2013-01-15 10:58:00,41.1,40.0,30.29,NW,322,1.5,3.5,96,0.03,-RA,,0.37,49.0,WeatherDisplay:10.37,2013-01-15 15:58:00,
2013-01-15 11:03:00,41.2,40.1,30.29,North,5,2.7,5.8,96,0.04,-RA,,0.38,63.0,WeatherDisplay:10.37,2013-01-15 16:03:00,
2013-01-15 11:08:00,41.2,40.1,30.29,NNE,23,0.0,1.1,96,0.04,-RA,,0.38,54.0,WeatherDisplay:10.37,2013-01-15 16:08:00,
2013-01-15 11:13:00,41.2,40.1,30.29,NNE,28,0.2,3.5,96,0.04,-RA,,0.38,62.0,WeatherDisplay:10.37,2013-01-15 16:13:00,
2013-01-15 11:18:00,41.2,40.1,30.28,NE,42,3.5,5.8,96,0.04,-RA,,0.38,69.0,WeatherDisplay:10.37,2013-01-15 16:18:00,
2013-01-15 11:23:00,41.2,40.1,30.28,NNE,28,0.2,2.0,96,0.04,-RA,,0.40,63.0,WeatherDisplay:10.37,2013-01-15 16:23:00,
2013-01-15 11:28:00,41.2,40.1,30.28,NE,43,0.0,0.0,96,0.04,-RA,,0.40,62.0,WeatherDisplay:10.37,2013-01-15 16:28:00,
2013-01-15 11:33:00,41.2,40.1,30.27,NNW,336,2.6,10.4,96,0.05,-RA,,0.41,54.0,WeatherDisplay:10.37,2013-01-15 16:33:00,
2013-01-15 11:38:00,41.1,40.0,30.27,NE,41,0.7,2.3,96,0.04,-RA,,0.41,58.0,WeatherDisplay:10.37,2013-01-15 16:38:00,
2013-01-15 11:43:00,41.1,40.0,30.27,NNE,33,2.6,4.6,96,0.05,-RA,,0.42,74.0,WeatherDisplay:10.37,2013-01-15 16:43:00,
2013-01-15 11:48:00,41.1,40.0,30.26,North,5,0.0,1.1,96,0.04,-RA,,0.42,62.0,WeatherDisplay:10.37,2013-01-15 16:48:00,
2013-01-15 11:53:00,41.1,40.0,30.26,NE,48,0.5,3.5,96,0.05,-RA,,0.43,51.0,WeatherDisplay:10.37,2013-01-15 16:53:00,
2013-01-15 11:58:00,41.1,40.0,30.26,NE,46,0.0,1.1,96,0.05,-RA,,0.43,46.0,WeatherDisplay:10.37,2013-01-15 16:58:00,
2013-01-15 12:03:00,41.1,40.0,30.25,NE,38,0.7,2.3,96,0.04,-RA,,0.43,40.0,WeatherDisplay:10.37,2013-01-15 17:03:00,
2013-01-15 12:08:00,41.1,40.0,30.25,NE,40,0.2,1.0,96,0.05,-RA,,0.44,60.0,WeatherDisplay:10.37,2013-01-15 17:08:00,
2013-01-15 12:13:00,41.1,40.0,30.25,NE,38,0.5,3.5,96,0.05,-RA,,0.44,65.0,WeatherDisplay:10.37,2013-01-15 17:13:00,
2013-01-15 12:18:00,41.1,40.0,30.24,NNE,20,0.0,1.1,96,0.05,-RA,,0.44,53.0,WeatherDisplay:10.37,2013-01-15 17:18:00,
2013-01-15 12:23:00,41.1,40.0,30.24,NNE,18,1.2,5.0,96,0.04,-RA,,0.44,44.0,WeatherDisplay:10.37,2013-01-15 17:23:00,
2013-01-15 12:28:00,41.1,40.0,30.24,NE,40,1.5,3.5,96,0.05,-RA,,0.45,65.0,WeatherDisplay:10.37,2013-01-15 17:28:00,
2013-01-15 12:33:00,41.1,40.0,30.26,ENE,64,2.3,3.5,96,0.04,-RA,,0.45,69.0,WeatherDisplay:10.37,2013-01-15 17:33:00,
2013-01-15 12:38:00,41.1,40.0,30.26,NNW,327,2.9,6.9,96,0.04,-RA,,0.45,51.0,WeatherDisplay:10.37,2013-01-15 17:38:00,
2013-01-15 12:43:00,40.9,39.8,30.26,NNE,29,0.5,2.3,96,0.04,-RA,,0.46,69.0,WeatherDisplay:10.37,2013-01-15 17:43:00,
2013-01-15 12:48:00,40.9,39.8,30.26,North,360,0.8,4.0,96,0.04,-RA,,0.46,83.0,WeatherDisplay:10.37,2013-01-15 17:48:00,
2013-01-15 12:53:00,40.8,39.7,30.26,NE,46,2.2,4.6,96,0.04,-RA,,0.47,97.0,WeatherDisplay:10.37,2013-01-15 17:53:00,
2013-01-15 12:58:00,40.8,39.7,30.26,East,92,2.3,5.8,96,0.04,-RA,,0.47,83.0,WeatherDisplay:10.37,2013-01-15 17:58:00,
2013-01-15 13:03:00,40.6,39.5,30.24,North,9,0.7,4.6,96,0.04,-RA,,0.47,97.0,WeatherDisplay:10.37,2013-01-15 18:03:00,
2013-01-15 13:08:00,40.6,39.5,30.24,NE,53,1.1,3.5,96,0.03,-RA,,0.47,100.0,WeatherDisplay:10.37,2013-01-15 18:08:00,
2013-01-15 13:13:00,40.6,39.5,30.24,ENE,59,1.0,4.6,96,0.04,-RA,,0.48,79.0,WeatherDisplay:10.37,2013-01-15 18:13:00,
2013-01-15 13:18:00,40.6,39.5,30.23,NE,39,0.9,3.5,96,0.04,-RA,,0.48,72.0,WeatherDisplay:10.37,2013-01-15 18:18:00,
2013-01-15 13:23:00,40.6,39.5,30.23,NNE,30,1.3,3.5,96,0.04,-RA,,0.48,56.0,WeatherDisplay:10.37,2013-01-15 18:23:00,
2013-01-15 13:28:00,40.6,39.5,30.23,NNE,24,0.4,2.3,96,0.04,-RA,,0.49,44.0,WeatherDisplay:10.37,2013-01-15 18:28:00,
2013-01-15 13:33:00,40.6,39.5,30.23,North,9,1.2,4.6,96,0.04,-RA,,0.49,44.0,WeatherDisplay:10.37,2013-01-15 18:33:00,
2013-01-15 13:38:00,40.5,39.4,30.23,NNE,19,0.1,2.0,96,0.04,-RA,,0.49,33.0,WeatherDisplay:10.37,2013-01-15 18:38:00,
2013-01-15 13:43:00,40.5,39.4,30.23,North,9,0.8,3.5,96,0.04,-RA,,0.51,54.0,WeatherDisplay:10.37,2013-01-15 18:43:00,
2013-01-15 13:48:00,40.5,39.4,30.24,NNE,28,0.0,0.0,96,0.04,-RA,,0.51,53.0,WeatherDisplay:10.37,2013-01-15 18:48:00,
2013-01-15 13:53:00,40.5,39.4,30.24,NE,40,1.2,2.3,96,0.04,-RA,,0.52,39.0,WeatherDisplay:10.37,2013-01-15 18:53:00,
2013-01-15 13:58:00,40.5,39.4,30.24,ENE,67,1.5,3.5,96,0.04,-RA,,0.52,46.0,WeatherDisplay:10.37,2013-01-15 18:58:00,
2013-01-15 14:03:00,40.3,39.3,30.23,NE,44,0.0,0.0,96,0.04,-RA,,0.52,46.0,WeatherDisplay:10.37,2013-01-15 19:03:00,
2013-01-15 14:08:00,40.3,39.3,30.23,North,360,0.3,1.1,96,0.05,-RA,,0.53,42.0,WeatherDisplay:10.37,2013-01-15 19:08:00,
2013-01-15 14:13:00,40.3,39.3,30.23,North,9,1.1,3.0,96,0.04,-RA,,0.53,33.0,WeatherDisplay:10.37,2013-01-15 19:13:00,
2013-01-15 14:18:00,40.2,39.2,30.23,NE,50,2.0,4.6,96,0.05,-RA,,0.54,32.0,WeatherDisplay:10.37,2013-01-15 19:18:00,
2013-01-15 14:23:00,40.2,39.2,30.23,ESE,109,0.9,3.5,96,0.05,-RA,,0.54,32.0,WeatherDisplay:10.37,2013-01-15 19:23:00,
2013-01-15 14:40:00,40.2,39.2,30.20,NE,36,0.6,6.0,96,0.08,-RA,,0.57,56.0,WeatherDisplay:10.37,2013-01-15 19:40:00,
2013-01-15 14:45:00,40.2,39.2,30.21,North,360,2.8,4.6,96,0.07,-RA,,0.57,47.0,WeatherDisplay:10.37,2013-01-15 19:45:00,
2013-01-15 14:50:00,40.1,39.1,30.21,NE,39,2.3,4.0,96,0.07,-RA,,0.58,33.0,WeatherDisplay:10.37,2013-01-15 19:50:00,
2013-01-15 14:55:00,40.1,39.1,30.21,North,9,0.6,3.5,96,0.07,-RA,,0.58,35.0,WeatherDisplay:10.37,2013-01-15 19:55:00,
2013-01-15 15:00:00,40.1,39.1,30.20,ENE,76,3.4,5.8,96,0.07,-RA,,0.58,33.0,WeatherDisplay:10.37,2013-01-15 20:00:00,
2013-01-15 15:05:00,39.9,38.9,30.20,ENE,67,1.4,2.3,96,0.07,-RA,,0.58,60.0,WeatherDisplay:10.37,2013-01-15 20:05:00,
2013-01-15 15:10:00,40.1,39.1,30.20,ENE,73,0.0,0.0,96,0.05,-RA,,0.58,46.0,WeatherDisplay:10.37,2013-01-15 20:10:00,
2013-01-15 15:15:00,40.1,39.1,30.19,ENE,63,2.0,3.5,96,0.05,-RA,,0.58,35.0,WeatherDisplay:10.37,2013-01-15 20:15:00,
2013-01-15 15:20:00,39.9,38.9,30.19,ENE,70,0.0,2.3,96,0.04,-RA,,0.58,19.0,WeatherDisplay:10.37,2013-01-15 20:20:00,
2013-01-15 15:25:00,39.9,38.9,30.19,ENE,73,0.0,3.5,96,0.03,-RA,,0.58,26.0,WeatherDisplay:10.37,2013-01-15 20:25:00,
2013-01-15 15:30:00,39.9,38.9,30.22,East,87,0.0,0.0,96,0.04,-RA,,0.59,30.0,WeatherDisplay:10.37,2013-01-15 20:30:00,
2013-01-15 15:35:00,39.9,38.9,30.22,NNE,19,0.7,5.0,96,0.03,-RA,,0.59,28.0,WeatherDisplay:10.37,2013-01-15 20:35:00,
2013-01-15 15:40:00,39.9,38.9,30.22,NNE,22,0.5,4.0,96,0.02,-RA,,0.59,25.0,WeatherDisplay:10.37,2013-01-15 20:40:00,
2013-01-15 15:45:00,39.8,38.8,30.24,ENE,69,0.5,3.5,96,0.03,-RA,,0.60,23.0,WeatherDisplay:10.37,2013-01-15 20:45:00,
2013-01-15 15:50:00,39.8,38.8,30.24,ENE,69,0.0,0.0,96,0.02,-RA,,0.60,23.0,WeatherDisplay:10.37,2013-01-15 20:50:00,
2013-01-15 15:55:00,39.8,38.8,30.24,ENE,69,0.0,0.0,96,0.02,-RA,,0.60,19.0,WeatherDisplay:10.37,2013-01-15 20:55:00,
2013-01-15 16:00:00,39.8,38.8,30.24,East,93,0.6,2.3,96,0.03,-RA,,0.62,25.0,WeatherDisplay:10.37,2013-01-15 21:00:00,
2013-01-15 16:05:00,39.8,38.8,30.23,ENE,76,0.0,3.5,96,0.03,-RA,,0.62,32.0,WeatherDisplay:10.37,2013-01-15 21:05:00,
2013-01-15 16:10:00,39.8,38.8,30.23,NE,49,0.0,3.5,96,0.03,-RA,,0.62,21.0,WeatherDisplay:10.37,2013-01-15 21:10:00,
2013-01-15 16:15:00,39.6,38.6,30.23,NE,56,0.0,0.0,96,0.03,-RA,,0.62,14.0,WeatherDisplay:10.37,2013-01-15 21:15:00,
2013-01-15 16:20:00,39.6,38.6,30.23,NE,56,0.0,2.3,96,0.04,-RA,,0.63,16.0,WeatherDisplay:10.37,2013-01-15 21:20:00,
2013-01-15 16:25:00,39.6,38.6,30.23,NE,55,0.0,2.3,96,0.04,-RA,,0.63,19.0,WeatherDisplay:10.37,2013-01-15 21:25:00,
2013-01-15 16:30:00,39.5,38.5,30.23,North,9,0.0,2.3,96,0.03,-RA,,0.63,12.0,WeatherDisplay:10.37,2013-01-15 21:30:00,
2013-01-15 16:35:00,39.5,38.5,30.23,NNE,20,0.0,0.0,96,0.03,-RA,,0.63,11.0,WeatherDisplay:10.37,2013-01-15 21:35:00,
2013-01-15 16:40:00,39.3,38.3,30.23,NNE,19,0.7,2.3,96,0.03,-RA,,0.63,11.0,WeatherDisplay:10.37,2013-01-15 21:40:00,
2013-01-15 16:45:00,39.2,38.2,30.23,NE,38,1.0,2.0,96,0.03,-RA,,0.64,11.0,WeatherDisplay:10.37,2013-01-15 21:45:00,
2013-01-15 16:51:00,39.2,37.9,30.23,NNE,24,0.9,4.6,95,0.03,-RA,,0.64,11.0,WeatherDisplay:10.37,2013-01-15 21:51:00,
2013-01-15 16:56:00,39.1,37.8,30.23,NE,45,0.5,3.5,95,0.03,-RA,,0.64,9.0,WeatherDisplay:10.37,2013-01-15 21:56:00,
2013-01-15 17:01:00,38.9,37.6,30.21,NE,36,1.5,3.5,95,0.03,-RA,,0.65,7.0,WeatherDisplay:10.37,2013-01-15 22:01:00,
2013-01-15 17:06:00,38.8,37.5,30.21,ENE,73,1.2,1.2,95,0.03,-RA,,0.65,7.0,WeatherDisplay:10.37,2013-01-15 22:06:00,
2013-01-15 17:11:00,38.8,37.5,30.21,ENE,63,0.0,2.3,95,0.03,-RA,,0.65,7.0,WeatherDisplay:10.37,2013-01-15 22:11:00,
2013-01-15 17:16:00,38.6,37.3,30.21,ENE,61,0.9,3.5,95,0.03,-RA,,0.65,7.0,WeatherDisplay:10.37,2013-01-15 22:16:00,
2013-01-15 17:21:00,38.6,37.3,30.21,ENE,63,0.1,1.0,95,0.02,-RA,,0.65,7.0,WeatherDisplay:10.37,2013-01-15 22:21:00,
2013-01-15 17:26:00,38.5,37.2,30.21,NNE,22,0.0,3.5,95,0.02,-RA,,0.65,7.0,WeatherDisplay:10.37,2013-01-15 22:26:00,
2013-01-15 17:31:00,38.5,37.2,30.22,NNE,22,0.0,0.0,95,0.03,-RA,,0.66,7.0,WeatherDisplay:10.37,2013-01-15 22:31:00,
2013-01-15 17:36:00,38.5,37.2,30.22,NNE,22,0.0,0.0,95,0.03,-RA,,0.66,7.0,WeatherDisplay:10.37,2013-01-15 22:36:00,
2013-01-15 17:42:00,38.5,37.2,30.22,NNE,22,0.0,0.0,95,0.03,-RA,,0.66,0.0,WeatherDisplay:10.37,2013-01-15 22:42:00,
2013-01-15 17:47:00,38.3,37.0,30.22,NNE,22,0.0,0.0,95,0.02,-RA,,0.66,7.0,WeatherDisplay:10.37,2013-01-15 22:47:00,
2013-01-15 17:52:00,38.3,37.0,30.22,NNE,22,0.0,0.0,95,0.03,-RA,,0.67,7.0,WeatherDisplay:10.37,2013-01-15 22:52:00,
2013-01-15 17:57:00,38.3,37.0,30.22,NNE,22,0.0,0.0,95,0.03,-RA,,0.67,0.0,WeatherDisplay:10.37,2013-01-15 22:57:00,
2013-01-15 18:02:00,38.3,37.0,30.22,NNE,22,0.0,0.0,95,0.02,-RA,,0.67,0.0,WeatherDisplay:10.37,2013-01-15 23:02:00,
2013-01-15 18:07:00,38.3,37.0,30.22,NNE,22,0.0,0.0,95,0.03,-RA,,0.68,7.0,WeatherDisplay:10.37,2013-01-15 23:07:00,
2013-01-15 18:12:00,38.3,37.0,30.22,NNE,22,0.5,2.3,95,0.03,-RA,,0.68,0.0,WeatherDisplay:10.37,2013-01-15 23:12:00,
2013-01-15 18:17:00,38.3,37.0,30.22,NE,53,1.7,3.5,95,0.04,-RA,,0.69,0.0,WeatherDisplay:10.37,2013-01-15 23:17:00,
2013-01-15 18:22:00,38.3,37.0,30.23,NE,51,0.0,0.0,95,0.04,-RA,,0.69,7.0,WeatherDisplay:10.37,2013-01-15 23:22:00,
2013-01-15 18:27:00,38.3,37.3,30.23,NE,51,0.0,0.0,96,0.04,-RA,,0.69,7.0,WeatherDisplay:10.37,2013-01-15 23:27:00,
2013-01-15 18:32:00,38.3,37.3,30.22,NE,51,0.0,0.0,96,0.04,-RA,,0.70,7.0,WeatherDisplay:10.37,2013-01-15 23:32:00,
2013-01-15 18:37:00,38.3,37.0,30.22,NE,51,0.0,1.0,95,0.04,-RA,,0.70,7.0,WeatherDisplay:10.37,2013-01-15 23:37:00,
2013-01-15 18:42:00,38.3,37.0,30.22,NE,51,0.2,1.1,95,0.05,-RA,,0.71,7.0,WeatherDisplay:10.37,2013-01-15 23:42:00,
2013-01-15 18:47:00,38.3,37.3,30.22,NE,51,0.5,2.3,96,0.05,-RA,,0.71,7.0,WeatherDisplay:10.37,2013-01-15 23:47:00,
2013-01-15 18:52:00,38.3,37.3,30.22,NE,51,0.5,2.3,96,0.04,-RA,,0.71,7.0,WeatherDisplay:10.37,2013-01-15 23:52:00,
2013-01-15 18:57:00,38.3,37.3,30.22,NE,51,0.4,2.3,96,0.05,-RA,,0.73,7.0,WeatherDisplay:10.37,2013-01-15 23:57:00,
2013-01-15 19:02:00,38.2,37.2,30.21,NE,51,0.1,1.1,96,0.05,-RA,,0.74,7.0,WeatherDisplay:10.37,2013-01-16 00:02:00,
2013-01-15 19:07:00,38.2,37.2,30.21,NE,51,0.4,2.3,96,0.05,-RA,,0.74,7.0,WeatherDisplay:10.37,2013-01-16 00:07:00,
2013-01-15 19:12:00,38.2,37.2,30.21,ENE,60,0.1,2.0,96,0.05,-RA,,0.74,7.0,WeatherDisplay:10.37,2013-01-16 00:12:00,
2013-01-15 19:17:00,38.2,37.2,30.21,ENE,59,0.9,3.0,96,0.05,-RA,,0.75,7.0,WeatherDisplay:10.37,2013-01-16 00:17:00,
2013-01-15 19:22:00,38.2,37.2,30.21,NE,55,0.0,1.1,96,0.05,-RA,,0.75,7.0,WeatherDisplay:10.37,2013-01-16 00:22:00,
2013-01-15 19:27:00,38.2,37.2,30.21,ENE,57,0.4,4.0,96,0.07,-RA,,0.76,7.0,WeatherDisplay:10.37,2013-01-16 00:27:00,
2013-01-15 19:32:00,38.2,37.2,30.19,NNE,13,0.0,1.1,96,0.07,-RA,,0.77,7.0,WeatherDisplay:10.37,2013-01-16 00:32:00,
2013-01-15 19:37:00,38.2,37.2,30.19,NE,34,1.6,5.8,96,0.07,-RA,,0.77,7.0,WeatherDisplay:10.37,2013-01-16 00:37:00,
2013-01-15 19:42:00,38.2,37.2,30.19,NNE,26,0.0,0.0,96,0.05,-RA,,0.77,7.0,WeatherDisplay:10.37,2013-01-16 00:42:00,
2013-01-15 19:47:00,38.3,37.3,30.21,NE,56,0.5,2.3,96,0.07,-RA,,0.78,7.0,WeatherDisplay:10.37,2013-01-16 00:47:00,
2013-01-15 19:52:00,38.3,37.3,30.21,NE,51,0.1,1.1,96,0.07,-RA,,0.78,7.0,WeatherDisplay:10.37,2013-01-16 00:52:00,
2013-01-15 19:57:00,38.3,37.3,30.21,NNE,24,0.1,1.1,96,0.05,-RA,,0.78,7.0,WeatherDisplay:10.37,2013-01-16 00:57:00,
2013-01-15 20:02:00,38.3,37.3,30.21,North,10,0.6,2.3,96,0.07,-RA,,0.79,7.0,WeatherDisplay:10.37,2013-01-16 01:02:00,
2013-01-15 20:07:00,38.3,37.3,30.21,NNE,26,0.0,0.0,96,0.05,-RA,,0.79,7.0,WeatherDisplay:10.37,2013-01-16 01:07:00,
2013-01-15 20:12:00,38.3,37.3,30.21,NE,44,0.4,3.5,96,0.05,-RA,,0.79,7.0,WeatherDisplay:10.37,2013-01-16 01:12:00,
2013-01-15 20:17:00,38.3,37.3,30.21,NE,35,2.5,3.5,96,0.05,-RA,,0.80,7.0,WeatherDisplay:10.37,2013-01-16 01:17:00,
2013-01-15 20:22:00,38.3,37.3,30.21,NNE,24,0.7,3.5,96,0.07,-RA,,0.81,7.0,WeatherDisplay:10.37,2013-01-16 01:22:00,
2013-01-15 20:27:00,38.3,37.3,30.21,NNE,21,1.7,3.5,96,0.05,-RA,,0.81,7.0,WeatherDisplay:10.37,2013-01-16 01:27:00,
2013-01-15 20:32:00,38.3,37.3,30.21,ENE,65,2.5,4.6,96,0.05,-RA,,0.82,7.0,WeatherDisplay:10.37,2013-01-16 01:32:00,
2013-01-15 20:37:00,38.3,37.3,30.21,ENE,61,0.8,3.5,96,0.07,-RA,,0.84,7.0,WeatherDisplay:10.37,2013-01-16 01:37:00,
2013-01-15 20:42:00,38.3,37.3,30.21,ENE,59,0.4,2.3,96,0.07,-RA,,0.84,7.0,WeatherDisplay:10.37,2013-01-16 01:42:00,
2013-01-15 20:47:00,38.2,37.2,30.20,ENE,60,1.5,3.5,96,0.07,-RA,,0.85,7.0,WeatherDisplay:10.37,2013-01-16 01:47:00,
2013-01-15 20:52:00,38.2,37.2,30.20,North,11,0.9,3.5,96,0.07,-RA,,0.85,7.0,WeatherDisplay:10.37,2013-01-16 01:52:00,
2013-01-15 20:57:00,38.2,37.2,30.20,ENE,57,3.5,5.8,96,0.07,-RA,,0.85,7.0,WeatherDisplay:10.37,2013-01-16 01:57:00,
2013-01-15 21:02:00,38.2,37.2,30.18,ENE,63,0.1,2.0,96,0.07,-RA,,0.86,7.0,WeatherDisplay:10.37,2013-01-16 02:02:00,
2013-01-15 21:07:00,38.0,37.0,30.18,NE,40,0.0,0.0,96,0.07,-RA,,0.86,7.0,WeatherDisplay:10.37,2013-01-16 02:07:00,
2013-01-15 21:12:00,38.0,37.0,30.18,NE,40,0.0,0.0,96,0.07,-RA,,0.86,7.0,WeatherDisplay:10.37,2013-01-16 02:12:00,
2013-01-15 21:17:00,38.0,37.0,30.18,North,9,1.1,3.5,96,0.05,-RA,,0.86,7.0,WeatherDisplay:10.37,2013-01-16 02:17:00,
2013-01-15 21:22:00,38.0,37.0,30.18,NE,49,0.0,1.1,96,0.05,-RA,,0.87,7.0,WeatherDisplay:10.37,2013-01-16 02:22:00,
2013-01-15 21:27:00,38.0,37.0,30.18,North,360,0.0,0.0,96,0.05,-RA,,0.87,7.0,WeatherDisplay:10.37,2013-01-16 02:27:00,
2013-01-15 21:32:00,37.9,36.9,30.18,NE,46,1.3,3.5,96,0.04,-RA,,0.87,7.0,WeatherDisplay:10.37,2013-01-16 02:32:00,
2013-01-15 21:37:00,37.9,36.9,30.18,NE,34,0.0,0.0,96,0.03,-RA,,0.87,7.0,WeatherDisplay:10.37,2013-01-16 02:37:00,
2013-01-15 21:42:00,37.9,36.9,30.18,NNW,329,2.8,4.6,96,0.03,-RA,,0.87,7.0,WeatherDisplay:10.37,2013-01-16 02:42:00,
2013-01-15 21:47:00,37.9,36.9,30.19,NNW,345,2.2,4.0,96,0.03,-RA,,0.88,7.0,WeatherDisplay:10.37,2013-01-16 02:47:00,
2013-01-15 21:52:00,37.8,36.8,30.19,NW,319,1.1,3.5,96,0.03,-RA,,0.88,7.0,WeatherDisplay:10.37,2013-01-16 02:52:00,
2013-01-15 21:57:00,37.8,36.8,30.19,NNE,20,1.0,2.3,96,0.03,-RA,,0.88,7.0,WeatherDisplay:10.37,2013-01-16 02:57:00,
2013-01-15 22:02:00,37.8,36.8,30.18,NE,43,0.0,1.0,96,0.02,-RA,,0.88,7.0,WeatherDisplay:10.37,2013-01-16 03:02:00,
2013-01-15 22:07:00,37.6,36.6,30.18,NNE,27,2.1,3.5,96,0.03,-RA,,0.89,7.0,WeatherDisplay:10.37,2013-01-16 03:07:00,
2013-01-15 22:12:00,37.6,36.6,30.18,NE,41,1.2,4.0,96,0.03,-RA,,0.89,7.0,WeatherDisplay:10.37,2013-01-16 03:12:00,
2013-01-15 22:17:00,37.5,36.5,30.16,NE,55,1.3,3.5,96,0.03,-RA,,0.89,5.0,WeatherDisplay:10.37,2013-01-16 03:17:00,
2013-01-15 22:22:00,37.5,36.5,30.16,NE,46,0.8,3.5,96,0.02,-RA,,0.89,5.0,WeatherDisplay:10.37,2013-01-16 03:22:00,
2013-01-15 22:27:00,37.3,36.3,30.16,NE,49,1.0,3.5,96,0.02,-RA,,0.89,5.0,WeatherDisplay:10.37,2013-01-16 03:27:00,
2013-01-15 22:32:00,37.3,36.3,30.14,NE,51,0.4,2.3,96,0.02,-RA,,0.89,5.0,WeatherDisplay:10.37,2013-01-16 03:32:00,
2013-01-15 22:37:00,37.2,36.2,30.14,ENE,72,0.2,1.1,96,0.02,-RA,,0.89,5.0,WeatherDisplay:10.37,2013-01-16 03:37:00,
2013-01-15 22:42:00,37.2,36.2,30.14,NNE,28,0.4,3.5,96,0.02,-RA,,0.89,5.0,WeatherDisplay:10.37,2013-01-16 03:42:00,
2013-01-15 22:47:00,37.2,36.2,30.13,ENE,65,0.7,3.5,96,0.01,-RA,,0.89,5.0,WeatherDisplay:10.37,2013-01-16 03:47:00,
2013-01-15 22:52:00,37.2,36.2,30.13,North,360,0.0,0.0,96,0.01,-RA,,0.89,5.0,WeatherDisplay:10.37,2013-01-16 03:52:00,
2013-01-15 22:57:00,37.0,36.0,30.13,ENE,58,1.3,3.5,96,0.02,-RA,,0.90,5.0,WeatherDisplay:10.37,2013-01-16 03:57:00,
2013-01-15 23:02:00,37.0,36.0,30.13,ENE,61,3.2,5.8,96,0.02,-RA,,0.90,5.0,WeatherDisplay:10.37,2013-01-16 04:02:00,
2013-01-15 23:07:00,37.0,36.0,30.13,ENE,71,3.7,5.8,96,0.01,-RA,,0.90,5.0,WeatherDisplay:10.37,2013-01-16 04:07:00,
2013-01-15 23:12:00,36.9,35.9,30.13,NE,48,1.7,3.5,96,0.01,-RA,,0.90,5.0,WeatherDisplay:10.37,2013-01-16 04:12:00,
2013-01-15 23:17:00,36.9,35.9,30.12,NE,55,0.8,3.5,96,0.01,-RA,,0.90,5.0,WeatherDisplay:10.37,2013-01-16 04:17:00,
2013-01-15 23:22:00,36.9,35.9,30.12,NE,53,2.3,6.9,96,0.01,-RA,,0.90,5.0,WeatherDisplay:10.37,2013-01-16 04:22:00,
2013-01-15 23:27:00,36.8,35.8,30.12,ENE,67,0.1,3.0,96,0.01,-RA,,0.90,7.0,WeatherDisplay:10.37,2013-01-16 04:27:00,
2013-01-15 23:32:00,36.8,35.8,30.12,WNW,293,0.0,1.1,96,0.01,-RA,,0.90,9.0,WeatherDisplay:10.37,2013-01-16 04:32:00,
2013-01-15 23:37:00,36.8,35.8,30.12,ENE,73,3.0,6.0,96,0.01,-RA,,0.90,9.0,WeatherDisplay:10.37,2013-01-16 04:37:00,
2013-01-15 23:42:00,36.8,35.8,30.12,NE,40,3.0,5.8,96,0.01,-RA,,0.90,9.0,WeatherDisplay:10.37,2013-01-16 04:42:00,
2013-01-15 23:47:00,36.8,35.8,30.11,NE,38,1.4,4.6,96,0.01,-RA,,0.90,9.0,WeatherDisplay:10.37,2013-01-16 04:47:00,
2013-01-15 23:52:00,36.8,35.8,30.11,NE,36,0.0,0.0,96,0.02,-RA,,0.91,9.0,WeatherDisplay:10.37,2013-01-16 04:52:00,
2013-01-15 23:57:00,36.8,35.8,30.11,NE,46,2.3,3.5,96,0.01,-RA,,0.91,11.0,WeatherDisplay:10.37,2013-01-16 04:57:00,